Apalachee Bay - Ochlockonee Bay Weather Center

Moon Phase Calendar



Online Cameras

 


      

Current Conditions in Wakulla
7/20/2024 8:52:15 AM

80°F
Feels Like 83
Clouds
Humidity
73%
Pressure
30.09"
Wind
7.4 mph (S)
Dew Point
71°F
UV Index
2/10 (Low)
Visibility
6 mi

Hourly Forecast

Date & Time Sat, Jul 20
8:00 AM
Sat, Jul 20
9:00 AM
Sat, Jul 20
10:00 AM
Sat, Jul 20
11:00 AM
Sat, Jul 20
12:00 PM
Sat, Jul 20
1:00 PM
Sat, Jul 20
2:00 PM
Sat, Jul 20
3:00 PM
Sat, Jul 20
4:00 PM
Sat, Jul 20
5:00 PM
Sat, Jul 20
6:00 PM
Sat, Jul 20
7:00 PM
Sat, Jul 20
8:00 PM
Sat, Jul 20
9:00 PM
Sat, Jul 20
10:00 PM
Sat, Jul 20
11:00 PM
Sun, Jul 21
12:00 AM
Sun, Jul 21
1:00 AM
Sun, Jul 21
2:00 AM
Sun, Jul 21
3:00 AM
Sun, Jul 21
4:00 AM
Sun, Jul 21
5:00 AM
Sun, Jul 21
6:00 AM
Sun, Jul 21
7:00 AM
Sun, Jul 21
8:00 AM
Sun, Jul 21
9:00 AM
Sun, Jul 21
10:00 AM
Sun, Jul 21
11:00 AM
Sun, Jul 21
12:00 PM
Sun, Jul 21
1:00 PM
Sun, Jul 21
2:00 PM
Sun, Jul 21
3:00 PM
Sun, Jul 21
4:00 PM
Sun, Jul 21
5:00 PM
Sun, Jul 21
6:00 PM
Sun, Jul 21
7:00 PM
Sun, Jul 21
8:00 PM
Sun, Jul 21
9:00 PM
Sun, Jul 21
10:00 PM
Sun, Jul 21
11:00 PM
Mon, Jul 22
12:00 AM
Mon, Jul 22
1:00 AM
Mon, Jul 22
2:00 AM
Mon, Jul 22
3:00 AM
Mon, Jul 22
4:00 AM
Mon, Jul 22
5:00 AM
Mon, Jul 22
6:00 AM
Mon, Jul 22
7:00 AM
Condition
Clouds

Clouds

Clouds

Clouds

Rain

Rain

Clouds

Clouds

Clouds

Clouds

Clouds

Clouds

Clouds

Clear

Rain

Rain

Rain

Rain

Rain

Clouds

Clouds

Clouds

Clouds

Clouds

Rain

Rain

Rain

Clouds

Clouds

Clouds

Clouds

Rain

Rain

Clouds

Clouds

Clouds

Rain

Rain

Rain

Rain

Clouds

Clouds

Clouds

Clear

Clear

Clear

Clouds

Clouds
Temperature 81°F80°F81°F81°F82°F83°F84°F84°F85°F85°F86°F86°F85°F85°F83°F83°F83°F83°F83°F83°F83°F83°F83°F82°F83°F84°F84°F85°F85°F85°F85°F85°F85°F85°F86°F85°F84°F83°F83°F83°F82°F81°F81°F81°F81°F81°F80°F80°F
Feels Like 85°F83°F85°F86°F88°F89°F91°F92°F92°F93°F94°F94°F95°F94°F92°F92°F91°F91°F91°F91°F91°F90°F90°F90°F90°F92°F92°F93°F94°F93°F93°F94°F93°F93°F93°F93°F92°F90°F91°F92°F90°F87°F87°F86°F86°F86°F85°F80°F
Cloudiness 97%99%99%99%100%100%100%62%47%45%38%33%29%9%11%35%49%46%45%13%12%11%12%13%21%100%96%97%98%92%90%100%100%91%83%67%58%12%12%45%35%35%30%5%6%4%25%42%
Visibility 6 mi6 mi6 mi6 mi6 mi6 mi6 mi6 mi6 mi6 mi6 mi6 mi6 mi6 mi6 mi6 mi6 mi6 mi6 mi6 mi6 mi6 mi6 mi6 mi6 mi6 mi6 mi6 mi6 mi6 mi6 mi6 mi6 mi6 mi6 mi6 mi6 mi6 mi6 mi6 mi6 mi6 mi6 mi6 mi6 mi6 mi6 mi6 mi
Precipitation 76%80%80%80%100%100%80%0%0%0%0%0%0%5%100%100%100%100%100%0%0%0%0%0%29%100%100%79%77%75%72%62%62%55%48%48%54%100%100%100%80%80%80%0%0%0%0%0%
Humidity 73%73%74%74%74%75%72%72%71%70%69%70%72%75%80%79%80%79%79%78%79%80%80%80%79%77%75%72%70%69%70%71%72%70%68%70%72%78%78%78%80%81%81%81%80%81%82%83%
Dew Point 71°F71°F72°F72°F73°F74°F74°F74°F74°F74°F75°F75°F76°F76°F76°F76°F76°F76°F76°F76°F76°F76°F76°F76°F76°F76°F75°F75°F74°F74°F74°F75°F75°F75°F74°F74°F75°F75°F75°F76°F75°F75°F75°F74°F74°F74°F74°F74°F
Pressure 30.09"30.09"30.09"30.09"30.09"30.09"30.09"30.09"30.06"30.06"30.06"30.03"30.03"30.06"30.06"30.09"30.06"30.09"30.06"30.06"30.03"30.03"30.03"30.06"30.06"30.09"30.09"30.09"30.09"30.06"30.06"30.06"30.03"30.03"30"30"30.03"30.03"30.06"30.06"30.06"30.03"30.03"30.03"30.03"30.03"30.03"30.03"
Wind Speed 7 mph7.4 mph7.4 mph5.4 mph6.2 mph9.6 mph10.4 mph10.9 mph10.9 mph10.4 mph12 mph12.4 mph11.4 mph10.5 mph11 mph10.6 mph10.5 mph8.8 mph7.8 mph7.4 mph7.7 mph7.2 mph6.6 mph5.3 mph6.2 mph9.2 mph9.4 mph9.6 mph10.5 mph11.7 mph13.4 mph14.1 mph12.9 mph12.8 mph12.8 mph13.3 mph14.4 mph13.4 mph10.1 mph10.4 mph9.7 mph8.4 mph6.1 mph3.4 mph2.6 mph4 mph3.1 mph3.8 mph
Wind
Direction
191°
S
191°
S
179°
S
187°
S
178°
S
148°
SSE
146°
SE
152°
SSE
161°
SSE
174°
S
190°
S
210°
SSW
213°
SSW
207°
SSW
216°
SW
222°
SW
228°
SW
229°
SW
233°
SW
229°
SW
233°
SW
237°
WSW
237°
WSW
236°
SW
215°
SW
215°
SW
221°
SW
212°
SSW
199°
SSW
189°
S
183°
S
187°
S
191°
S
194°
SSW
202°
SSW
214°
SW
217°
SW
230°
SW
228°
SW
235°
SW
256°
WSW
272°
W
279°
W
273°
W
273°
W
306°
NW
346°
NNW
348°
NNW

Daily Forecast

Date High Low Precip. Humidity
Today
Jul 20

Rain
86 °F
80 °F
100%
75%
Sunday
Jul 21

Rain
86 °F
82 °F
100%
69%
Monday
Jul 22

Rain
87 °F
80 °F
80%
76%
Tuesday
Jul 23

Rain
85 °F
80 °F
100%
72%
Wednesday
Jul 24

Rain
86 °F
83 °F
100%
73%
Thursday
Jul 25

Rain
86 °F
80 °F
100%
68%
Friday
Jul 26

Rain
85 °F
80 °F
100%
73%
Saturday
Jul 27

Rain
87 °F
80 °F
100%
70%
Sunday
Jul 28

Rain
87 °F
78 °F
100%
68%
Monday
Jul 29

Rain
84 °F
78 °F
100%
73%
Tuesday
Jul 30

Rain
86 °F
79 °F
100%
65%
Wednesday
Jul 31

Rain
85 °F
79 °F
100%
71%
Thursday
Aug 1

Rain
86 °F
81 °F
100%
69%
Friday
Aug 2

Rain
86 °F
82 °F
100%
73%
Saturday
Aug 3

Rain
85 °F
82 °F
100%
72%
Sunday
Aug 4

Rain
87 °F
81 °F
95%
68%

Temperature 8-14 Day Outlook



Precipitation 8-14 Day Outlook






About Us
Contact Us
Site Map
Search Site
Advertise With Us
   
Apalachee.USGulf.info
THE APALACHEE BAY - OCHLOCKONEE BAY WEBSITE

Copyright 2024, Coastal Town
Privacy    |    Legal